Sarasota, FL

5:28 PM EST on December 18, 2017 (GMT -0500)
Sarasota-bradenton

Weather History for KSRQ - January, 2002

Change the Weather History Date:

Thursday, January 24, 2002

  Actual Average Record
Temperature  
Mean Temperature 72 °F 62 °F  
Max Temperature 81 °F 71 °F 85 °F (1967)
Min Temperature 62 °F 52 °F 29 °F (1960)
Degree Days  
Heating Degree Days 0 5  
Month to date heating degree days 129  
Since 1 July heating degree days 284  
Cooling Degree Days 6 2  
Month to date cooling degree days 48  
Year to date cooling degree days 48  
Growing Degree Days 22 (Base 50)    
Moisture  
Dew Point 64 °F    
Average Humidity 81    
Maximum Humidity 100    
Minimum Humidity 54    
Precipitation  
Precipitation 0.01 in 0.05 in 6.10 in (1998)
Month to date precipitation 2.09  
Year to date precipitation 2.09  
Sea Level Pressure  
Sea Level Pressure 30.08 in    
Wind  
Wind Speed 10 mph (SSE)    
Max Wind Speed 17 mph    
Max Gust Speed 24 mph    
Visibility 10 miles    
Events      
T = Trace of Precipitation, MM = Missing Value Source: NWS Daily Summary

Daily Weather History Graph

Daily Weather History Graph

Search for Another Location

Airport or City:

Trip Planner

Search our weather history database for the weather conditions in past years. The results will help you decide how hot, cold, wet, or windy it might be!

Date:

Astronomy

Jan. 24, 2002 Rise Set
Actual Time 7:19 AM EST 6:05 PM EST
Civil Twilight 6:55 AM EST 6:29 PM EST
Nautical Twilight 6:26 AM EST 6:58 PM EST
Astronomical Twilight 5:58 AM EST 7:26 PM EST
Moon 2:05 PM EST (1/24) 3:07 AM EST (1/24)
Length of Visible Light 11h 34m
Length of Day
10h 45m
Waxing Gibbous, 78% of the Moon is Illuminated
Jan 24
Waxing Gibbous
Jan 28
Full
Feb 4
Last Quarter
Feb 12
New
Feb 20
First Quarter

Hourly Weather History & Observations

Time (EST) Temp. Heat Index Dew Point Humidity Pressure Visibility Wind Dir Wind Speed Gust Speed Precip Events Conditions
12:53 AM 64.0 °F - 63.0 °F 96% 30.15 in 10.0 mi ENE 6.9 mph - N/A   Clear
1:53 AM 63.0 °F - 62.1 °F 97% 30.14 in 10.0 mi East 6.9 mph - N/A   Clear
2:53 AM 63.0 °F - 62.1 °F 97% 30.12 in 10.0 mi East 6.9 mph - 0.01 in   Clear
3:53 AM 62.1 °F - 62.1 °F 100% 30.12 in 10.0 mi East 6.9 mph - N/A   Clear
4:53 AM 64.9 °F - 64.0 °F 97% 30.11 in 10.0 mi ESE 8.1 mph - N/A   Mostly Cloudy
5:53 AM 64.9 °F - 64.0 °F 97% 30.11 in 10.0 mi ESE 9.2 mph - N/A   Partly Cloudy
6:53 AM 64.9 °F - 64.0 °F 97% 30.12 in 10.0 mi ESE 9.2 mph - N/A   Clear
7:53 AM 66.0 °F - 64.9 °F 96% 30.13 in 10.0 mi ESE 8.1 mph - N/A   Clear
8:53 AM 70.0 °F - 66.9 °F 90% 30.15 in 10.0 mi SE 11.5 mph - N/A   Clear
9:53 AM 73.9 °F - 68.0 °F 82% 30.15 in 10.0 mi SE 13.8 mph - N/A   Clear
10:53 AM 79.0 °F - 66.9 °F 66% 30.14 in 10.0 mi SSE 16.1 mph - N/A   Partly Cloudy
11:53 AM 81.0 °F 82.7 °F 64.9 °F 58% 30.12 in 10.0 mi South 15.0 mph - N/A   Scattered Clouds
12:53 PM 80.1 °F 81.2 °F 62.1 °F 54% 30.08 in 10.0 mi South 17.3 mph 24.2 mph N/A   Clear
1:53 PM 80.1 °F 81.5 °F 63.0 °F 56% 30.05 in 10.0 mi South 16.1 mph 23.0 mph N/A   Clear
2:53 PM 80.1 °F 81.5 °F 63.0 °F 56% 30.04 in 10.0 mi South 16.1 mph - N/A   Clear
3:53 PM 78.1 °F - 64.0 °F 62% 30.02 in 10.0 mi South 15.0 mph - N/A   Clear
4:53 PM 75.9 °F - 64.0 °F 67% 30.01 in 10.0 mi South 17.3 mph - N/A   Clear
5:53 PM 73.0 °F - 63.0 °F 71% 30.01 in 10.0 mi South 12.7 mph - N/A   Clear
6:53 PM 71.1 °F - 64.0 °F 78% 30.01 in 10.0 mi South 11.5 mph - N/A   Clear
7:53 PM 71.1 °F - 64.0 °F 78% 30.03 in 10.0 mi South 9.2 mph - N/A   Clear
8:53 PM 70.0 °F - 64.9 °F 84% 30.03 in 10.0 mi South 10.4 mph - N/A   Clear
9:53 PM 70.0 °F - 64.9 °F 84% 30.04 in 10.0 mi South 9.2 mph - N/A   Clear
10:53 PM 69.1 °F - 66.0 °F 90% 30.04 in 10.0 mi South 10.4 mph - N/A   Clear